Location: Dampvalley
(47.9094°N, 6.1967°E)
Time: 07:33:45
(UTC+00:00)

Cosmos 2221 - Pass Details

Date: 05 March 2021
Orbit: 592 x 616 km, 82.5° (Epoch: 18 April)

Event Time Altitude Azimuth Distance (km) Brightness Sun altitude
Exits shadow 05:15:45 12° 282° (WNW) 1,841 4.4 -9.6°
Maximum altitude 05:16:44 13° 297° (WNW) 1,794 4.4 -9.4°
Drops below altitude 10° 05:18:44 10° 324° (NW) 1,976 4.8 -9.1°
Sets 05:22:11 0° 353° (N) 2,881 5.9 -8.5°
